Regional Weather Roundup
Issued by NWS

Home | Current Version | Previous Version | Text Only | Print | Product List | Glossary Off
Versions: 1 2 3 4 5 6 7 8 9 10 11 12 13 14 15 16 17 18 19 20 21 22 23 24 25 26 27 28 29 30 31 32 33 34 35 36 37 38 39 40 41 42 43 44 45 46 47 48 49 50

034
ASUS45 KBOU 222007
RWRCO

WEATHER ROUNDUP FOR COLORADO
NATIONAL WEATHER SERVICE DENVER/BOULDER CO
200 PM MDT SAT JUL 22 2017

NOTE: "FAIR" INDICATES FEW OR NO CLOUDS BELOW 12000 FEET WITH NO
SIGNIFICANT WEATHER AND/OR OBSTRUCTIONS TO VISIBILITY.

COZ001>005-013-030-031-222100-
...NORTHWEST COLORADO...

CITY           SKY/WX    TMP DP  RH WIND       PRES   REMARKS
CRAIG          FAIR      85  39  19 VRB5      30.27F
HAYDEN         FAIR      81  46  30 W8        30.29F
MEEKER         FAIR      86  40  19 NE14G20   30.26F
RABBIT EARS PA FAIR      64  41  42 NW7       30.60F
STEAMBOAT SPGS FAIR      80  45  28 N9        30.30F
WALDEN         FAIR      77  30  18 N8G17     30.41F
$$

COZ006>008-011-222100-
...WEST CENTRAL VALLEYS...

CITY           SKY/WX    TMP DP  RH WIND       PRES   REMARKS
GRAND JUNCTION FAIR      86  59  39 NW5       30.13F
MONTROSE       FAIR      81  56  42 VRB3      30.22F
EAGLE          SUNNY     77  54  44 W5        30.30F
RIFLE          FAIR      88  51  28 N6        30.18F
DELTA          FAIR      86  54  33 S6        30.18F
NUCLA          NOT AVBL
$$

COZ017>023-064>068-222100-
...SOUTHWEST COLORADO...

CITY           SKY/WX    TMP DP  RH WIND       PRES   REMARKS
DURANGO        FAIR      82  47  29 VRB5      30.22F
CORTEZ         FAIR      80  54  40 NW3       30.19F
PAGOSA SPRINGS FAIR      80  42  26 NE20      30.32F THUNDER
TELLURIDE      PTSUNNY   63  50  62 SE7       30.51R
WOLF CREEK PAS NOT AVBL
$$

COZ009-010-012-014-032>034-037-058>063-222100-
...CENTRAL COLORADO...

CITY           SKY/WX    TMP DP  RH WIND       PRES   REMARKS
ASPEN          PTSUNNY   78  48  34 VRB3      30.34F
BUENA VISTA    FAIR      78  42  26 E8        30.36F
COPPER MTN     FAIR      63  37  39 N6        30.69F THUNDER
BERTHOUD PASS  FAIR      48  34  57 S10G23    30.74F
COTTONWOOD PAS FAIR      73  36  25 SE7G22    30.52F
GUNNISON       FAIR      75  53  46 W12       30.36F
KREMMLING      FAIR      84  41  21 SW7       30.34F
LEADVILLE      FAIR      69  36  29 VRB5      30.47F
SALIDA         FAIR      82  43  25 N5        30.40F
SUNLIGHT       FAIR      61  39  44 NE6       30.64F
WILKERSON PASS FAIR      61  37  41 E6        30.66F
$$

COZ069>075-222100-
...SAN LUIS VALLEY/SANGRE DE CRISTO MOUNTAINS...

CITY           SKY/WX    TMP DP  RH WIND       PRES   REMARKS
ALAMOSA        FAIR      78  47  33 N12       30.31F
DEL NORTE      CLOUDY    70  45  41 SW22G30   30.40R THUNDER
LA VETA PASS   NOT AVBL
SAGUACHE         N/A    N/A N/A N/A MISG        N/A
$$

COZ035-036-038>040-222100-
...NORTHERN COLORADO FRONT RANGE...

CITY           SKY/WX    TMP DP  RH WIND       PRES   REMARKS
DENVER INTL AP PTSUNNY   87  51  28 E8        30.19S
DMNS CITY PARK   N/A     84  46  25 N15       30.19S
AURORA         MOSUNNY   86  50  28 CALM      30.21S
FRONT RANGE AP FAIR      86  48  26 E3        30.21S
ERIE MUNI ARPT FAIR      86  47  25 E5        30.18F
BOULDER MUN AP FAIR      84  46  26 CALM      30.20S
CENTENNIAL     FAIR      83  48  29 N5        30.22F
BROOMFIELD     FAIR      84  45  24 NW6       30.23S
FORT COLLINS   FAIR      86  53  32 S10       30.17F
LONGMONT       FAIR      85  50  29 SE3       30.19F
$$

COZ041-046-047-076>085-087-088-222100-
...PIKES PEAK/PALMER DIVIDE AND SOUTHERN FOOTHILLS...

CITY           SKY/WX    TMP DP  RH WIND       PRES   REMARKS
COLO. SPRINGS  PTSUNNY   83  54  36 VRB5      30.25F
A. F. ACADEMY  FAIR      81  46  29 NE6       30.25F
SCHRIEVER AFB  FAIR      77  53  43 NE5       30.26F
CHEYENNE MTN   FAIR      77  54  45 MISG      30.25F
ELLICOTT       FAIR     N/A N/A N/A NE3       30.24F
FALCON           N/A     79  52  39 E7        30.31F
FORT CARSON    PTSUNNY   76  57  51 S5        30.21F
LIMON          FAIR      82  54  37 E8        30.20F
MONUMENT HILL  FAIR      75  50  41 N9        30.32F
CANON CITY     MOSUNNY   81  59  47 MISG      30.19F
WALSENBURG     FAIR      88  52  29 N8        30.23F
TRINIDAD       PTSUNNY   86  48  26 E13       30.19F
$$

COZ042>045-048>051-090-091-222100-
...NORTHEAST COLORADO...

CITY           SKY/WX    TMP DP  RH WIND       PRES   REMARKS
GREELEY ARPT   FAIR      86  56  35 SE8       30.15F
AKRON          FAIR      83  57  41 E14G23    30.17F
BURLINGTON     CLOUDY    82  58  43 NE14      30.13S
WRAY           NOT AVBL
YUMA           NOT AVBL
STERLING       FAIR      88  59  37 SE12      30.11S
HOLYOKE        NOT AVBL
FORT MORGAN    FAIR      87  52  29 S3        30.15F
$$

COZ086-089-092>099-222100-
...SOUTHEAST COLORADO...

CITY           SKY/WX    TMP DP  RH WIND       PRES   REMARKS
PUEBLO         FAIR      89  53  29 MISG      30.12F
LA JUNTA       FAIR      90  55  30 NE7       30.10F
LAMAR          FAIR      91  60  35 NE16      30.04F
SPRINGFIELD      N/A     90  56  31 VRB6      30.07F
$$




USA.gov is the U.S. government's official web portal to all federal, state and local government web resources and services.